| time (UTC) | temp F | wind direction | speed MPH | gust MPH | rain 1hr in | rain 24hr in | rain mn in | humidity % | barometer mb |
| 20260510230008 | 100 | 291 | 1.0 | 12.0 | 0.00 | 0.00 | 0.00 | 7 | 1005.3 |
| 20260510224511 | 99 | 293 | 11.0 | 17.0 | 0.00 | 0.00 | 0.00 | 7 | 1005.4 |
| 20260510223005 | 98 | 301 | 5.0 | 15.0 | 0.00 | 0.00 | 0.00 | 7 | 1005.6 |
| 20260510221504 | 99 | 310 | 6.0 | 17.0 | 0.00 | 0.00 | 0.00 | 7 | 1005.7 |
| 20260510220033 | 99 | 302 | 5.0 | 12.0 | 0.00 | 0.00 | 0.00 | 8 | 1005.8 |
| 20260510214535 | 99 | 259 | 8.0 | 17.0 | 0.00 | 0.00 | 0.00 | 7 | 1006.0 |
| 20260510213102 | 99 | 269 | 5.0 | 9.0 | 0.00 | 0.00 | 0.00 | 8 | 1006.2 |
| 20260510211559 | 99 | 309 | 7.0 | 17.0 | 0.00 | 0.00 | 0.00 | 7 | 1006.2 |
| 20260510210055 | 98 | 301 | 8.0 | 18.0 | 0.00 | 0.00 | 0.00 | 8 | 1006.4 |
| 20260510204605 | 98 | 291 | 7.0 | 13.0 | 0.00 | 0.00 | 0.00 | 8 | 1006.6 |
| 20260510203052 | 98 | 333 | 5.0 | 18.0 | 0.00 | 0.00 | 0.00 | 8 | 1006.9 |
| 20260510201553 | 97 | 257 | 8.0 | 20.0 | 0.00 | 0.00 | 0.00 | 8 | 1006.9 |
| 20260510200050 | 96 | 256 | 7.0 | 18.0 | 0.00 | 0.00 | 0.00 | 8 | 1007.1 |
| 20260510194548 | 97 | 258 | 7.0 | 13.0 | 0.00 | 0.00 | 0.00 | 9 | 1007.1 |
| 20260510193047 | 96 | 300 | 4.0 | 15.0 | 0.00 | 0.00 | 0.00 | 10 | 1007.3 |
| 20260510191549 | 97 | 297 | 3.0 | 11.0 | 0.00 | 0.00 | 0.00 | 9 | 1007.3 |
| 20260510190045 | 96 | 269 | 5.0 | 11.0 | 0.00 | 0.00 | 0.00 | 10 | 1007.6 |
| 20260510184543 | 96 | 302 | 3.0 | 8.0 | 0.00 | 0.00 | 0.00 | 10 | 1007.8 |
| 20260510183045 | 95 | 307 | 3.0 | 7.0 | 0.00 | 0.00 | 0.00 | 11 | 1007.9 |
| 20260510181548 | 98 | 130 | 1.0 | 5.0 | 0.00 | 0.00 | 0.00 | 11 | 1008.0 |
| 20260510180040 | 96 | 172 | 1.0 | 7.0 | 0.00 | 0.00 | 0.00 | 12 | 1008.2 |
| 20260510174540 | 95 | 252 | 1.0 | 5.0 | 0.00 | 0.00 | 0.00 | 12 | 1008.2 |
| 20260510173029 | 93 | 248 | 1.0 | 3.0 | 0.00 | 0.00 | 0.00 | 13 | 1008.3 |
| 20260510171527 | 92 | 140 | 0.0 | 2.0 | 0.00 | 0.00 | 0.00 | 17 | 1008.3 |
| 20260510170024 | 91 | 249 | 0.0 | 3.0 | 0.00 | 0.00 | 0.00 | 14 | 1008.4 |
| 20260510164533 | 91 | 134 | 1.0 | 3.0 | 0.00 | 0.00 | 0.00 | 15 | 1008.3 |
| 20260510163020 | 90 | 146 | 0.0 | 3.0 | 0.00 | 0.00 | 0.00 | 15 | 1008.3 |
| 20260510161520 | 89 | 131 | 0.0 | 5.0 | 0.00 | 0.00 | 0.00 | 15 | 1008.3 |
| 20260510160055 | 88 | 181 | 0.0 | 4.0 | 0.00 | 0.00 | 0.00 | 16 | 1008.3 |
| 20260510154547 | 88 | 127 | 0.0 | 3.0 | 0.00 | 0.00 | 0.00 | 18 | 1008.2 |
| 20260510153046 | 86 | 164 | 0.0 | 2.0 | 0.00 | 0.00 | 0.00 | 20 | 1008.3 |
| 20260510151536 | 84 | 126 | 0.0 | 2.0 | 0.00 | 0.00 | 0.00 | 20 | 1008.4 |
| 20260510150030 | 81 | 118 | 0.0 | 0.0 | 0.00 | 0.00 | 0.00 | 23 | 1008.3 |
| 20260510144542 | 80 | 203 | 0.0 | 0.0 | 0.00 | 0.00 | 0.00 | 25 | 1008.3 |
| 20260510143025 | 79 | 207 | 0.0 | 2.0 | 0.00 | 0.00 | 0.00 | 26 | 1008.2 |
| 20260510141524 | 79 | 108 | 0.0 | 0.0 | 0.00 | 0.00 | 0.00 | 27 | 1008.2 |
| 20260510140026 | 77 | 108 | 0.0 | 0.0 | 0.00 | 0.00 | 0.00 | 25 | 1008.1 |
| 20260510134522 | 74 | 108 | 0.0 | 0.0 | 0.00 | 0.00 | 0.00 | 26 | 1008.1 |
| 20260510133019 | 73 | 108 | 0.0 | 3.0 | 0.00 | 0.00 | 0.00 | 24 | 1008.0 |
| 20260510131517 | 70 | 123 | 0.0 | 1.0 | 0.00 | 0.00 | 0.00 | 26 | 1007.8 |
| 20260510130015 | 69 | 110 | 0.0 | 2.0 | 0.00 | 0.00 | 0.00 | 26 | 1007.7 |
| 20260510124513 | 69 | 96 | 0.0 | 0.0 | 0.00 | 0.00 | 0.00 | 26 | 1007.5 |
| 20260510123111 | 69 | 116 | 0.0 | 1.0 | 0.00 | 0.00 | 0.00 | 26 | 1007.3 |
| 20260510121542 | 67 | 107 | 0.0 | 1.0 | 0.00 | 0.00 | 0.00 | 28 | 1007.2 |
| 20260510120039 | 67 | 84 | 0.0 | 3.0 | 0.00 | 0.00 | 0.00 | 30 | 1007.2 |
| 20260510114535 | 67 | 106 | 1.0 | 7.0 | 0.00 | 0.00 | 0.00 | 31 | 1007.0 |
| 20260510113031 | 68 | 123 | 3.0 | 8.0 | 0.00 | 0.00 | 0.00 | 30 | 1006.8 |
| 20260510111530 | 70 | 335 | 0.0 | 0.0 | 0.00 | 0.00 | 0.00 | 25 | 1006.6 |
| 20260510110036 | 70 | 8 | 0.0 | 2.0 | 0.00 | 0.00 | 0.00 | 26 | 1006.6 |
| 20260510104614 | 70 | 65 | 0.0 | 0.0 | 0.00 | 0.00 | 0.00 | 25 | 1006.6 |
| 20260510103100 | 71 | 11 | 0.0 | 0.0 | 0.00 | 0.00 | 0.00 | 25 | 1006.8 |
| 20260510101552 | 70 | 356 | 0.0 | 0.0 | 0.00 | 0.00 | 0.00 | 26 | 1006.7 |
| 20260510100055 | 71 | 83 | 0.0 | 0.0 | 0.00 | 0.00 | 0.00 | 25 | 1006.4 |
| 20260510094549 | 72 | 83 | 0.0 | 0.0 | 0.00 | 0.00 | 0.00 | 23 | 1006.4 |
| 20260510093044 | 73 | 83 | 0.0 | 2.0 | 0.00 | 0.00 | 0.00 | 22 | 1006.4 |
| 20260510091538 | 73 | 119 | 0.0 | 0.0 | 0.00 | 0.00 | 0.00 | 22 | 1006.3 |
| 20260510090040 | 74 | 129 | 0.0 | 4.0 | 0.00 | 0.00 | 0.00 | 22 | 1006.2 |
| 20260510084537 | 76 | 127 | 2.0 | 3.0 | 0.00 | 0.00 | 0.00 | 20 | 1006.3 |
| 20260510083036 | 79 | 291 | 0.0 | 0.0 | 0.00 | 0.00 | 0.00 | 17 | 1006.1 |
| 20260510081524 | 79 | 335 | 0.0 | 0.0 | 0.00 | 0.00 | 0.00 | 17 | 1006.1 |
| 20260510080023 | 79 | 326 | 0.0 | 1.0 | 0.00 | 0.00 | 0.00 | 17 | 1006.2 |
| 20260510074521 | 80 | 305 | 0.0 | 3.0 | 0.00 | 0.00 | 0.00 | 17 | 1006.3 |
| 20260510073020 | 80 | 297 | 0.0 | 4.0 | 0.00 | 0.00 | 0.00 | 16 | 1006.3 |
| 20260510071556 | 81 | 354 | 0.0 | 4.0 | 0.00 | 0.00 | 0.00 | 16 | 1006.4 |
| 20260510070046 | 81 | 303 | 1.0 | 4.0 | 0.00 | 0.00 | 0.00 | 16 | 1006.4 |
| 20260510064602 | 82 | 323 | 1.0 | 9.0 | 0.00 | 0.00 | 0.00 | 16 | 1006.3 |
| 20260510063042 | 82 | 293 | 5.0 | 10.0 | 0.00 | 0.00 | 0.00 | 15 | 1006.1 |
| 20260510061543 | 82 | 292 | 4.0 | 7.0 | 0.00 | 0.00 | 0.00 | 16 | 1005.9 |
| 20260510060052 | 81 | 275 | 4.0 | 12.0 | 0.00 | 0.00 | 0.00 | 17 | 1005.7 |
| 20260510054539 | 82 | 290 | 0.0 | 4.0 | 0.00 | 0.00 | 0.00 | 16 | 1005.3 |
| 20260510053041 | 83 | 303 | 1.0 | 5.0 | 0.00 | 0.00 | 0.00 | 15 | 1005.2 |
| 20260510051542 | 86 | 303 | 2.0 | 5.0 | 0.00 | 0.00 | 0.00 | 13 | 1005.0 |
| 20260510050039 | 87 | 310 | 3.0 | 5.0 | 0.00 | 0.00 | 0.00 | 13 | 1004.9 |
| 20260510044506 | 87 | 283 | 4.0 | 9.0 | 0.00 | 0.00 | 0.00 | 13 | 1004.8 |
| 20260510043006 | 87 | 297 | 3.0 | 11.0 | 0.00 | 0.00 | 0.00 | 13 | 1004.6 |
| 20260510041503 | 87 | 305 | 2.0 | 6.0 | 0.00 | 0.00 | 0.00 | 13 | 1004.5 |
| 20260510040003 | 87 | 306 | 3.0 | 9.0 | 0.00 | 0.00 | 0.00 | 13 | 1004.4 |
| 20260510034502 | 86 | 302 | 2.0 | 5.0 | 0.00 | 0.00 | 0.00 | 13 | 1004.1 |
| 20260510033000 | 86 | 304 | 0.0 | 2.0 | 0.00 | 0.00 | 0.00 | 13 | 1004.0 |
| 20260510031601 | 87 | 300 | 0.0 | 2.0 | 0.00 | 0.00 | 0.00 | 13 | 1003.7 |
| 20260510030100 | 86 | 323 | 0.0 | 1.0 | 0.00 | 0.00 | 0.00 | 13 | 1003.6 |
| 20260510024601 | 87 | 300 | 0.0 | 0.0 | 0.00 | 0.00 | 0.00 | 13 | 1003.4 |
| 20260510023057 | 89 | 299 | 1.0 | 5.0 | 0.00 | 0.00 | 0.00 | 12 | 1003.3 |
| 20260510021554 | 91 | 337 | 2.0 | 6.0 | 0.00 | 0.00 | 0.00 | 11 | 1003.2 |
| 20260510020055 | 93 | 292 | 0.0 | 7.0 | 0.00 | 0.00 | 0.00 | 10 | 1003.1 |
| 20260510014553 | 94 | 4 | 3.0 | 11.0 | 0.00 | 0.00 | 0.00 | 10 | 1003.0 |
| 20260510013104 | 95 | 304 | 3.0 | 11.0 | 0.00 | 0.00 | 0.00 | 10 | 1002.9 |
| 20260510011550 | 95 | 302 | 5.0 | 14.0 | 0.00 | 0.00 | 0.00 | 9 | 1002.9 |
| 20260510010101 | 96 | 301 | 6.0 | 13.0 | 0.00 | 0.00 | 0.00 | 9 | 1002.8 |
| 20260510004556 | 96 | 289 | 7.0 | 12.0 | 0.00 | 0.00 | 0.00 | 9 | 1003.0 |
| 20260510003046 | 97 | 299 | 6.0 | 12.0 | 0.00 | 0.00 | 0.00 | 9 | 1003.0 |
| 20260510001516 | 97 | 260 | 9.0 | 16.0 | 0.00 | 0.00 | 0.00 | 9 | 1003.0 |
| 20260510000014 | 97 | 295 | 4.0 | 18.0 | 0.00 | 0.00 | 0.00 | 9 | 1003.2 |
| 20260509234559 | 97 | 41 | 8.0 | 15.0 | 0.00 | 0.00 | 0.00 | 9 | 1003.2 |
| 20260509233041 | 98 | 295 | 3.0 | 9.0 | 0.00 | 0.00 | 0.00 | 9 | 1003.4 |
| 20260509231510 | 98 | 300 | 3.0 | 10.0 | 0.00 | 0.00 | 0.00 | 9 | 1003.5 |